TimeEST,TemperatureF,Dew PointF,Humidity,Sea Level PressureIn,VisibilityMPH,Wind Direction,Wind SpeedMPH,Gust SpeedMPH,PrecipitationIn,Events,Conditions,WindDirDegrees,DateUTC
12:32 AM,39.2,37.4,93,29.99,3.0,ENE,3.5,-,0.01,Rain,Light Rain,60,2012-12-08 05:32:00
12:51 AM,39.9,37.9,93,30.00,2.5,East,3.5,-,0.02,Rain,Light Rain,90,2012-12-08 05:51:00
1:08 AM,39.2,37.4,93,29.98,1.8,East,3.5,-,0.00,Rain,Light Rain,90,2012-12-08 06:08:00
1:18 AM,39.2,37.4,93,29.98,2.5,East,5.8,-,0.01,Rain,Light Rain,90,2012-12-08 06:18:00
1:40 AM,39.2,37.4,93,29.98,2.5,East,3.5,-,0.02,Rain,Light Rain,80,2012-12-08 06:40:00
1:51 AM,39.9,39.0,97,29.99,2.5,Calm,Calm,-,0.03,Rain,Light Rain,0,2012-12-08 06:51:00
1:59 AM,39.2,39.2,100,29.98,2.5,ENE,3.5,-,0.00,,Overcast,60,2012-12-08 06:59:00
2:13 AM,39.2,37.4,93,29.97,1.8,NE,4.6,-,0.00,,Overcast,50,2012-12-08 07:13:00
2:41 AM,39.2,37.4,93,29.96,2.0,NE,4.6,-,0.00,,Overcast,50,2012-12-08 07:41:00
2:51 AM,39.0,37.9,96,29.97,2.5,ENE,3.5,-,0.00,,Overcast,60,2012-12-08 07:51:00
3:25 AM,39.2,39.2,100,29.95,1.8,NE,3.5,-,N/A,,Overcast,50,2012-12-08 08:25:00
3:51 AM,39.9,39.0,97,29.95,1.8,NNE,3.5,-,N/A,,Overcast,30,2012-12-08 08:51:00
4:51 AM,39.9,39.0,97,29.94,1.2,Calm,Calm,-,N/A,,Overcast,0,2012-12-08 09:51:00
5:51 AM,39.9,39.9,100,29.93,0.8,Calm,Calm,-,N/A,,Overcast,0,2012-12-08 10:51:00
6:51 AM,39.9,39.0,97,29.93,0.8,Calm,Calm,-,N/A,,Overcast,0,2012-12-08 11:51:00
7:51 AM,39.9,39.9,100,29.93,0.2,Calm,Calm,-,N/A,Fog,Fog,0,2012-12-08 12:51:00
8:51 AM,41.0,41.0,100,29.94,0.2,Calm,Calm,-,N/A,Fog,Fog,0,2012-12-08 13:51:00
9:51 AM,43.0,42.1,97,29.94,0.2,Calm,Calm,-,N/A,,Overcast,0,2012-12-08 14:51:00
10:51 AM,44.1,43.0,96,29.93,0.5,Calm,Calm,-,N/A,,Overcast,0,2012-12-08 15:51:00
11:51 AM,45.0,44.1,97,29.91,0.5,WSW,5.8,-,N/A,,Overcast,240,2012-12-08 16:51:00
11:58 AM,44.6,44.6,100,29.90,3.0,SW,5.8,-,N/A,,Overcast,220,2012-12-08 16:58:00
12:07 PM,44.6,44.6,100,29.89,2.5,SW,5.8,-,N/A,,Overcast,220,2012-12-08 17:07:00
12:51 PM,46.0,45.0,96,29.89,5.0,WSW,4.6,-,N/A,,Overcast,240,2012-12-08 17:51:00
1:08 PM,46.4,44.6,93,29.89,5.0,SW,5.8,-,N/A,,Overcast,220,2012-12-08 18:08:00
1:51 PM,46.9,45.0,93,29.89,5.0,SW,5.8,-,N/A,,Overcast,220,2012-12-08 18:51:00
2:51 PM,48.0,45.0,89,29.91,3.0,SW,5.8,-,N/A,,Overcast,220,2012-12-08 19:51:00
3:51 PM,48.0,46.0,93,29.92,3.0,SW,6.9,-,N/A,,Overcast,220,2012-12-08 20:51:00
4:18 PM,48.2,44.6,87,29.91,2.0,SW,3.5,-,N/A,,Overcast,220,2012-12-08 21:18:00
4:51 PM,48.0,45.0,89,29.93,2.0,WSW,4.6,-,N/A,,Overcast,250,2012-12-08 21:51:00
5:51 PM,46.9,45.0,93,29.94,2.0,West,4.6,-,N/A,,Overcast,260,2012-12-08 22:51:00
6:38 PM,46.4,44.6,93,29.94,2.0,West,4.6,-,N/A,,Overcast,280,2012-12-08 23:38:00
6:51 PM,46.9,45.0,93,29.95,2.0,West,3.5,-,N/A,,Overcast,260,2012-12-08 23:51:00
7:51 PM,46.9,45.0,93,29.97,1.5,Calm,Calm,-,0.00,Rain,Light Rain,0,2012-12-09 00:51:00
8:51 PM,46.0,45.0,96,29.99,1.5,Calm,Calm,-,0.01,Rain,Light Rain,0,2012-12-09 01:51:00
9:12 PM,46.4,44.6,93,29.98,1.2,Calm,Calm,-,0.00,,Overcast,0,2012-12-09 02:12:00
9:51 PM,46.0,45.0,96,30.01,1.5,WSW,4.6,-,0.01,Rain,Light Rain,240,2012-12-09 02:51:00
10:51 PM,46.0,44.1,93,30.02,1.0,NW,4.6,-,0.00,,Overcast,320,2012-12-09 03:51:00
11:51 PM,46.0,45.0,96,30.02,1.5,Calm,Calm,-,N/A,,Overcast,0,2012-12-09 04:51:00
11:58 PM,46.4,44.6,93,30.01,1.5,Calm,Calm,-,N/A,,Overcast,0,2012-12-09 04:58:00